[[{"header":{"parameterUnit":"m.s-1","parameterCategory":1,"la1":30.2992,"la2":30.254,"lo1":-89.0895,"lo2":-89.0443,"dy":0.0025,"dx":0.0025,"nx":19,"ny":19,"refTime":"2026-04-23T09:00:00:Z","depth":0,"parameterNumber":2,"parameterNumberName":"U-component_of_WINDS"},"data":[0,0,0,-1.0624,-1.0626,-1.0707,-1.0707,-1.0808,-1.0809,0,0,0,0,0,0,0,0,0,0,0,-1.0596,-1.0597,-1.0624,-1.0626,-1.0707,-1.0707,-1.0808,-1.0809,0,0,0,0,0,0,0,0,0,0,0,-1.0596,-1.0597,-1.0597,-1.0626,-1.0707,-1.0707,-1.0807,-1.0748,0,0,0,0,0,0,0,0,0,0,-1.067,-1.064,-1.0597,-1.0597,-1.0627,-1.0707,-1.0707,-1.0745,-1.0752,-1.0769,0,-1.0781,0,-1.0796,-1.0815,-1.0815,0,0,0,-1.063,-1.0634,-1.0659,-1.0597,-1.0628,-1.0707,-1.0672,-1.0749,-1.0756,-1.0778,-1.0783,-1.0786,-1.0798,-1.0815,-1.0816,-1.0898,-1.0898,0,0,-1.0626,-1.0609,-1.0654,-1.0664,-1.0648,-1.0669,-1.0674,-1.0753,-1.0759,-1.0783,-1.0789,-1.0799,-1.0816,-1.0817,-1.0897,-1.0898,0,0,0,-1.061,-1.0606,-1.0629,-1.066,-1.0674,-1.0671,-1.0677,-1.0755,-1.0764,-1.079,-1.0801,-1.0817,-1.0818,-1.0897,-1.0898,-1.089,0,0,0,-1.0608,-1.0597,-1.0627,-1.0618,-1.0673,-1.0715,-1.0677,-1.0759,-1.0768,-1.08,-1.0817,-1.0819,-1.0897,-1.0897,-1.089,-1.089,0,0,0,-1.0593,-1.0595,-1.0605,-1.0617,-1.0651,-1.0714,-1.0728,-1.0761,-1.0774,-1.0815,-1.0819,-1.0897,-1.0897,-1.089,-1.089,-1.0907,0,0,0,-1.0572,-1.0599,-1.0605,-1.0639,-1.065,-1.0709,-1.0728,-1.0773,-1.0807,-1.0817,-1.0897,-1.0897,-1.089,-1.089,-1.0906,-1.0918,-1.0921,0,0,-1.0597,-1.0601,-1.0623,-1.063,-1.0683,-1.0698,-1.0751,-1.0799,-1.0819,-1.0871,-1.0873,-1.089,-1.089,-1.0907,-1.0944,-1.0946,0,0,0,-1.0625,-1.064,-1.0658,-1.0688,-1.0724,-1.0756,-1.0797,-1.0815,-1.0859,-1.0841,-1.0902,-1.0902,-1.0912,-1.0919,-1.0921,-1.0931,-1.09,-1.09,-1.0899,-1.0637,-1.0659,-1.0696,-1.0729,-1.0759,-1.08,-1.0827,-1.0859,-1.0875,-1.0889,-1.0904,-1.0924,-1.093,-1.0932,-1.0942,-1.0912,-1.0912,-1.0912,-1.0912,-1.0675,-1.07,-1.0719,-1.0761,-1.0786,-1.0823,-1.0866,-1.0875,-1.0915,-1.0914,-1.0924,-1.0921,-1.0933,-1.0944,-1.0912,-1.0912,-1.0912,-1.0912,-1.0912,-1.0685,-1.0701,-1.0721,-1.0767,-1.0801,-1.0834,-1.0871,-1.0893,-1.0914,-1.0924,-1.0943,-1.0944,-1.0947,-1.0932,-1.0932,-1.0932,-1.0932,-1.0932,-1.0932,-1.0688,-1.071,-1.0737,-1.0777,-1.0799,-1.0832,-1.0875,-1.0899,-1.0931,-1.0944,-1.0945,-1.0959,-1.093,-1.0922,-1.0933,-1.0933,-1.0933,-1.0933,-1.0933,-1.0718,-1.0714,-1.0756,-1.0778,-1.0827,-1.086,-1.0887,-1.0933,-1.0956,-1.0974,-1.0986,-1.0961,-1.0968,-1.0967,-1.096,-1.0981,-1.0981,-1.0981,-1.0981,-1.0727,-1.0732,-1.0779,-1.0813,-1.085,-1.0878,-1.0926,-1.096,-1.0995,-1.1012,-1.1012,-1.1005,-1.1003,-1.1012,-1.1009,-1.1004,-1.1035,-1.1035,-1.1035,-1.0747,-1.0757,-1.0792,-1.0824,-1.0864,-1.0898,-1.0945,-1.0986,-1.1025,-1.1038,-1.1025,-1.1023,-1.1012,-1.1008,-1.102,-1.1016,-1.1006,0,0]},{"header":{"parameterUnit":"m.s-1","parameterCategory":1,"la1":30.2992,"la2":30.254,"lo1":-89.0895,"lo2":-89.0443,"dy":0.0025,"dx":0.0025,"nx":19,"ny":19,"refTime":"2026-04-23T09:00:00:Z","depth":0,"parameterNumber":3,"parameterNumberName":"V-component_of_WINDS"},"data":[0,0,0,5.7651,5.7651,5.7642,5.7642,5.7658,5.7658,0,0,0,0,0,0,0,0,0,0,0,5.7672,5.7672,5.7651,5.7651,5.7642,5.7642,5.7658,5.7658,0,0,0,0,0,0,0,0,0,0,0,5.7671,5.7672,5.7673,5.7652,5.7642,5.7642,5.7658,5.7655,0,0,0,0,0,0,0,0,0,0,5.7659,5.7695,5.7672,5.7673,5.7652,5.7642,5.7642,5.7654,5.7655,5.7674,0,5.7697,0,5.7678,5.7661,5.7661,0,0,0,5.7638,5.7695,5.7676,5.7673,5.7652,5.7642,5.7643,5.7654,5.7655,5.7675,5.7696,5.7696,5.7678,5.7661,5.7662,5.7817,5.7819,0,0,5.7639,5.7679,5.7676,5.7678,5.7682,5.7643,5.7643,5.7654,5.768,5.7696,5.7696,5.7678,5.7662,5.7662,5.7816,5.7818,0,0,0,5.7649,5.7681,5.7661,5.7678,5.7674,5.7643,5.7642,5.7679,5.7669,5.7696,5.7679,5.7662,5.7662,5.7814,5.7817,5.7923,0,0,0,5.7649,5.7686,5.7662,5.7687,5.7674,5.7677,5.7668,5.7669,5.7669,5.7678,5.7662,5.7663,5.7813,5.7816,5.7916,5.7966,0,0,0,5.7666,5.7688,5.7693,5.7689,5.7686,5.7676,5.7666,5.7668,5.7659,5.7661,5.7663,5.7812,5.7815,5.7911,5.7957,5.8019,0,0,0,5.7696,5.7788,5.7695,5.779,5.7687,5.7741,5.7665,5.7704,5.7719,5.7662,5.7813,5.7816,5.7909,5.7951,5.8013,5.8079,5.811,0,0,5.7834,5.7806,5.7858,5.7775,5.7857,5.7739,5.7836,5.7811,5.7774,5.7805,5.7808,5.7919,5.7957,5.8018,5.8268,5.8293,0,0,0,5.7916,5.7954,5.7967,5.7983,5.7966,5.7955,5.791,5.7901,5.7925,5.7798,5.7956,5.7977,5.8012,5.8041,5.8062,5.8089,5.7832,5.7831,5.7831,5.817,5.8117,5.82,5.8146,5.8162,5.8115,5.8123,5.8102,5.8044,5.8082,5.8091,5.825,5.8286,5.8301,5.833,5.8121,5.8121,5.8122,5.8122,5.8368,5.8413,5.8333,5.8385,5.8328,5.8371,5.8328,5.8285,5.8316,5.8239,5.8266,5.8187,5.833,5.8352,5.8129,5.8128,5.8127,5.8126,5.8126,5.8529,5.8541,5.8528,5.8544,5.8562,5.8503,5.8537,5.8483,5.8433,5.8461,5.8464,5.8462,5.8454,5.8466,5.8466,5.8467,5.8467,5.8468,5.8468,5.8702,5.8683,5.8718,5.8706,5.8708,5.8704,5.8656,5.8657,5.8644,5.8602,5.8602,5.8541,5.8354,5.8309,5.8476,5.8475,5.8474,5.8473,5.8473,5.8923,5.8864,5.8918,5.8921,5.8901,5.8922,5.8853,5.8859,5.8851,5.8869,5.88,5.8671,5.8638,5.8621,5.8583,5.8812,5.8812,5.8812,5.8812,5.906,5.9037,5.908,5.9087,5.9087,5.9029,5.9091,5.9054,5.9006,5.8998,5.8956,5.8901,5.8886,5.8862,5.8839,5.8803,5.9083,5.9083,5.9083,5.9193,5.9168,5.9231,5.9183,5.9164,5.9148,5.9203,5.9214,5.9147,5.9093,5.899,5.8979,5.8889,5.8862,5.8808,5.8774,5.8706,0,0]}]]